Weather in Dzhizak

Uzbekistan     40°07′13″N   67°49′42″E
temp.,
°C
wind,
m/s
gust,
m/s
humid.,
%
clouds,
%
prec.,
mm/h
press.,
hPa
HPBL,
m
9 may, sun
sun923:00+21se115381 0.0 101311
02:00+19sw225436 0.0 101211
05:00+16e2261100 0.1 101437
08:00+17nne455491 0.1 1016637
11:00+21ne434978 0.1 1015724
14:00+24nne434378 0.0 10131065
17:00+23nne554599 0.3 10131275
20:00+18ne336499 0.0 101444
10 may, mon
mon1023:00+16e33696 0.0 101335
02:00+16ene3373100 0.0 101140
05:00+15ene227970 0.0 101132
08:00+18ne347220 1.6 1012362
11:00+20nne4556100 2.6 1012966
14:00+22ne3447100 2.3 10111265
17:00+19se3468100 3.1 1011203
20:00+17ne22772 0.4 101235
11 may, tue
tue1123:00+15ese2267100 0.7 101413
02:00+15ene2260100 0.1 101416
05:00+14e236128 0.4 101522
08:00+18ne35440 0.0 1016444
11:00+21ne56300 0.0 10161287
14:00+24ne66250 0.0 10151766
17:00+24ene67250 0.0 10152063
20:00+18ese33341 0.0 101629
12 may, wed
wed1223:00+16ese22350 0.0 101612
02:00+15e11430 0.0 101511
05:00+13ese11510 0.0 101611
08:00+17ne23460 0.0 1016363
11:00+21ne45390 0.0 10151276
14:00+24ne55300 0.0 10141876
17:00+24ne67290 0.0 10132166
20:00+18ene23470 0.0 101425
13 may, thu
thu1323:00+15ene22580 0.0 101418
02:00+13nne01540 0.0 101411
05:00+12se11500 0.0 101311
08:00+16nne22400 0.0 1014342
11:00+21nne33270 0.0 1013881
14:00+24n54215 0.0 10121454
17:00+24n45170 0.0 10121526
20:00+18ssw22240 0.0 101212